USA 486

operational
NORAD ID: 62757 Int'l Des: 2025-014 Owner: NROC Country: US
LEOCIRCULAR

About USA 486

Description loading...

Live Position

Loading 3D Globe...

Upcoming Passes

Altitude History

Altitude vs Time

uPlot chart will show altitude changes over time

Two-Line Element Set

1 62757U 25014Y 26061.33455861 .00255391 00000-0 15217-2 0 9992
2 62757 42.9995 40.2175 0001920 254.5527 105.5131 15.76407455 63917
Epoch: Mar 2, 2026 • Age: 32 hours

Current Status

Altitude 342.6 km
Velocity 7.70 km/s
Sub-Earth Point -19.10°S, 40.94°W
Launch Date Jan 21, 2025
Age 1.1 years
Type military

Technical Details

Classification Payload
Mass 800.00 kg
Dry Mass 750.00 kg
Total Mass 800.00 kg
Length 0.30 m
Diameter 4.10 m
Span 29.00 m
Shape Box + pan
Manufacturer SPXS
Bus Type Starshield
Phase Status In Orbit
Owner/State NROC/US

Large Constellations

Loading constellations...